ICEYE-X49

导读 | 星芒AI

ICEYE-X49 是 ICEYE 公司发射的一颗合成孔径雷达(SAR)成像卫星,具备高分辨率和全天候、全天时成像能力。该卫星采用小型卫星平台,支持快速部署和灵活的任务调度,广泛应用于灾害监测、环境评估和安全监控等领域。作为 ICEYE 卫星星座的一部分,ICEYE-X49 提升了全球雷达遥感数据的获取频率和覆盖能力,为政府和商业客户提供关键的地理空间情报支持。

基本信息
目录编号:
62384
目录名称:
ICEYE-X49
国际标识:
2024-247H
轨道中心:
EARTH
卫星名称:
ICEYE-X49
卫星全名:
ICEYE-X49
卫星状态:
在轨 (已飞行359 天)
发射日期:
2024-12-21 UTC
国别 :
(FI)
星等 :
--
轨道信息
数据来源 国际轨道数据 AOE轨道数据
星历时间 2025-12-14T12:14:23+0800
1天前
查看轨道信息
2025-12-09T18:00:00+0800
6天前
查看轨道信息
半长轴 6912.154km 6912.493km
偏心率 0.0001315 0.0001796
轨道倾角 44.998° 44.999°
近地点辐角 50.074° 6.740°
升交点赤经 263.551° 288.872°
平近点角 310.025° 359.944°
近地点 533.11km 533.116km
远地点 534.928km 535.6km
周期 95.319分钟 95.326分钟
每日圈数 15.107154 15.106044
详细信息
使用方式:
暂无
2D轨道图
3D轨道图
轨道高度分析图
轨道倾角分析图
轨道综合分析图
查看轨道综合分析图